sat.trackr.live / text

‹ back to catalog

STARLINK-36873

NORAD 67948 · 2026-037S

PAYLOAD ACTIVE UNKNOWN

§ Identity

Operator
Country
US
Launch date
2026-02-24
Launch site
AFETR
Launch vehicle
Mass (kg)
RCS (m²)

Purposes: comms

External: N2YO · Heavens-Above · Gunter

§ Orbital elements

Epoch: 2026-09-19T02:13:06.976704Z

Period
94.27 min
Inclination
43.0033°
Eccentricity
0.0001567
Mean motion
15.27592289 rev/d
Perigee alt
481.9 km
Apogee alt
484.1 km
Semi-major
6,861.1 km
B*
5.5668e-4
RAAN
178.0977°
Arg perigee
248.8559°
Mean anomaly
111.2125°
Rev number
3,292

§ Raw data

STARLINK-368731 67948U 26037S   26262.09244186  .00015094  00000+0  55668-3 0  99952 67948  43.0033 178.0977 0001567 248.8559 111.2125 15.27592289 32927

JSON: /api/v1/satellites/67948 · /tle

For live sub-satellite position, see the globe view (requires WebGL).

§ Visibility from observer

Set your observer location to see the next 7 days of passes ≥ 10°. The values pass through the URL so the page stays shareable.

No JS? Fill the form by hand. The geolocation button needs JavaScript.